Location: Unspecified
(0.0000°N, 0.0000°E)
Time: 13:34:07
(UTC+00:00)

HULIANWANG DIGUI-83 - Pass Details

Date: 15 November 2025
Orbit: 1167 x 1169 km, 86.5° (Epoch: 13 December)

Event Time Altitude Azimuth Distance (km) Brightness Sun altitude
Rises 04:45:47 0° 199° (SSW) 4,046 ? -13.9°
Reaches altitude 10° 04:48:44 10° 209° (SSW) 3,081 ? -13.2°
Maximum altitude 04:54:55 32° 269° (W) 1,878 ? -11.8°
Drops below altitude 10° 05:01:07 10° 330° (NNW) 3,072 ? -10.3°
Sets 05:04:04 0° 340° (NNW) 4,031 ? -9.6°
